DW9064 Weather Reports


Display with metric or nautical units.
time (UTC)temp
F
wind
direction
speed
MPH
gust
MPH
rain 1hr
in
rain 24hr
in
rain mn
in
humidity
%
barometer
mb
20260903072025 55 2 0.0 4.0 0.01 0.15 0.00 96 1008.0
20260903071124 55 34 1.0 5.0 0.02 0.15 0.00 96 1008.1
20260903070224 55 26 2.0 6.0 0.02 0.15 0.00 95 1008.0
20260903063524 56 23 2.0 5.0 0.02 0.15 0.15 95 1008.1
20260903062624 56 27 3.0 5.0 0.02 0.15 0.15 95 1008.1
20260903061724 56 40 1.0 4.0 0.00 0.13 0.13 94 1008.0
20260903060824 56 13 1.0 4.0 0.00 0.13 0.13 94 1008.2
20260903055924 56 26 2.0 4.0 0.00 0.13 0.13 93 1008.2
20260903055024 56 356 3.0 4.0 0.00 0.13 0.13 93 1008.2
20260903054124 56 12 2.0 7.0 0.00 0.13 0.13 94 1008.2
20260903053224 56 10 3.0 5.0 0.00 0.13 0.13 94 1008.3
20260903052324 56 6 1.0 5.0 0.00 0.13 0.13 93 1008.3
20260903051424 56 6 1.0 4.0 0.00 0.13 0.13 93 1008.3
20260903050524 56 4 3.0 4.0 0.00 0.13 0.13 92 1008.3
20260903045624 56 336 2.0 7.0 0.00 0.13 0.13 92 1008.3
20260903044724 56 328 3.0 7.0 0.00 0.13 0.13 91 1008.1
20260903043824 57 337 4.0 7.0 0.00 0.13 0.13 89 1008.0
20260903042924 57 344 3.0 7.0 0.00 0.13 0.13 87 1008.0
20260903042024 58 68 4.0 5.0 0.00 0.13 0.13 85 1007.9
20260903041124 58 358 0.0 6.0 0.00 0.13 0.13 86 1007.8
20260903035324 57 10 2.0 7.0 0.00 0.13 0.13 88 1007.3
20260903032624 56 337 6.0 8.0 0.00 0.13 0.13 89 1007.2
20260903031724 56 339 5.0 8.0 0.00 0.13 0.13 87 1007.1
20260903030824 56 327 6.0 9.0 0.00 0.13 0.13 86 1007.0
20260903025924 57 328 6.0 10.0 0.00 0.13 0.13 84 1006.8
20260903025024 58 345 5.0 8.0 0.00 0.13 0.13 81 1007.0
20260903024124 59 5 2.0 9.0 0.00 0.13 0.13 80 1007.0
20260903023224 58 2 4.0 7.0 0.00 0.13 0.13 81 1006.8
20260903022324 58 355 4.0 8.0 0.00 0.13 0.13 82 1006.8
20260903021423 58 357 4.0 8.0 0.00 0.13 0.13 84 1007.0
20260903020524 58 331 4.0 8.0 0.00 0.13 0.13 85 1007.0
20260903015623 58 318 4.0 8.0 0.00 0.13 0.13 84 1007.1
20260903014724 59 337 4.0 7.0 0.00 0.13 0.13 82 1007.1
20260903013823 60 337 4.0 7.0 0.00 0.13 0.13 80 1007.2
20260903012923 61 336 4.0 6.0 0.00 0.13 0.13 78 1007.1
20260903012023 61 348 4.0 6.0 0.00 0.13 0.13 76 1007.2
20260903010224 63 6 3.0 5.0 0.00 0.13 0.13 70 1007.3
20260903005323 64 3 2.0 6.0 0.00 0.13 0.13 66 1007.5
20260903004424 65 337 2.0 11.0 0.00 0.13 0.13 63 1007.5
20260903003524 66 343 4.0 12.0 0.00 0.13 0.13 61 1007.6
20260903002624 66 347 1.0 5.0 0.00 0.13 0.13 63 1007.6
20260903001723 66 355 3.0 8.0 0.00 0.13 0.13 62 1007.6
20260903000824 66 343 4.0 9.0 0.00 0.13 0.13 62 1007.5
20260902235923 66 17 4.0 7.0 0.00 0.13 0.13 61 1007.6
20260902234123 67 29 3.0 7.0 0.00 0.13 0.13 57 1007.6
20260902233223 67 47 2.0 8.0 0.00 0.13 0.13 60 1007.8
20260902232323 67 12 1.0 8.0 0.00 0.13 0.13 62 1007.8
20260902231423 66 2 3.0 10.0 0.00 0.13 0.13 64 1007.8
20260902230523 64 2 2.0 8.0 0.00 0.13 0.13 67 1008.0
20260902225624 64 350 3.0 6.0 0.00 0.13 0.13 67 1008.1
20260902224723 64 328 3.0 6.0 0.00 0.13 0.13 67 1008.1
20260902223823 63 335 4.0 6.0 0.00 0.13 0.13 71 1008.2
20260902222923 62 177 2.0 13.0 0.00 0.13 0.13 73 1008.3
20260902222023 61 2 0.0 4.0 0.00 0.13 0.13 80 1008.4
20260902221123 60 319 2.0 4.0 0.00 0.13 0.13 83 1008.4
20260902220223 60 326 2.0 5.0 0.00 0.13 0.13 83 1008.6
20260902214423 61 336 3.0 5.0 0.00 0.13 0.13 79 1008.8
20260902213523 62 339 2.0 7.0 0.00 0.13 0.13 76 1008.9
20260902212623 63 4 1.0 5.0 0.00 0.13 0.13 77 1008.7
20260902211723 63 2 2.0 6.0 0.00 0.13 0.13 77 1008.6
20260902210823 63 1 4.0 7.0 0.00 0.13 0.13 76 1008.7
20260902205923 63 83 1.0 4.0 0.00 0.13 0.13 78 1008.7
20260902205023 63 64 2.0 4.0 0.00 0.13 0.13 82 1008.7
20260902203223 61 83 3.0 6.0 0.00 0.13 0.13 84 1008.7
20260902202323 61 94 1.0 5.0 0.00 0.13 0.13 84 1008.7
20260902201423 61 77 1.0 4.0 0.00 0.13 0.13 83 1008.7
20260902200523 61 129 0.0 3.0 0.00 0.13 0.13 83 1008.8
20260902195623 61 125 2.0 4.0 0.00 0.13 0.13 83 1008.9
20260902194723 61 77 2.0 3.0 0.00 0.13 0.13 84 1008.8
20260902193823 61 103 1.0 3.0 0.00 0.13 0.13 85 1008.9
20260902192924 60 118 2.0 7.0 0.00 0.13 0.13 86 1009.0
20260902192023 60 145 3.0 7.0 0.00 0.13 0.13 86 1009.1
20260902191123 60 157 2.0 3.0 0.00 0.13 0.13 88 1009.0
20260902185323 60 95 0.0 5.0 0.00 0.13 0.13 88 1009.0
20260902184423 60 99 3.0 6.0 0.00 0.13 0.13 89 1008.9
20260902183523 60 111 0.0 7.0 0.00 0.13 0.13 91 1008.8
20260902181723 59 117 2.0 3.0 0.00 0.13 0.13 92 1009.0
20260902180822 58 356 0.0 3.0 0.00 0.13 0.13 93 1009.0
20260902175922 57 105 1.0 3.0 0.00 0.13 0.13 94 1009.1
20260902175023 57 114 0.0 6.0 0.00 0.13 0.13 95 1009.0
20260902174122 57 100 4.0 6.0 0.00 0.13 0.13 97 1008.6
20260902173223 56 117 1.0 5.0 0.00 0.13 0.13 97 1008.7
20260902172323 56 17 2.0 8.0 0.00 0.13 0.13 98 1009.0
20260902171423 55 67 1.0 3.0 0.01 0.13 0.13 98 1008.6
20260902165623 55 100 0.0 4.0 0.01 0.13 0.13 98 1008.6
20260902164722 54 63 1.0 2.0 0.01 0.13 0.13 98 1008.4
20260902163822 54 42 0.0 3.0 0.01 0.13 0.13 97 1008.6
20260902162023 53 354 0.0 4.0 0.02 0.13 0.13 96 1009.0
20260902161122 53 357 1.0 6.0 0.01 0.12 0.12 96 1008.7
20260902160222 54 16 2.0 5.0 0.01 0.12 0.12 96 1008.7
20260902154422 54 188 2.0 10.0 0.12 0.12 0.12 97 1008.9
20260902153522 53 194 2.0 10.0 0.12 0.12 0.12 97 1009.1
20260902152622 53 29 1.0 6.0 0.11 0.11 0.11 91 1008.1
20260902151723 53 3 3.0 6.0 0.11 0.11 0.11 89 1007.8
20260902150822 54 309 2.0 5.0 0.11 0.11 0.11 86 1007.7
20260902145922 55 341 1.0 6.0 0.09 0.09 0.09 81 1007.9
20260902145022 56 178 1.0 8.0 0.00 0.00 0.00 78 1008.2
20260902144122 56 192 1.0 4.0 0.00 0.00 0.00 79 1007.9
20260902143222 55 181 2.0 4.0 0.00 0.00 0.00 79 1008.0
20260902142322 54 188 1.0 4.0 0.00 0.00 0.00 81 1007.7
20260902141422 53 107 2.0 3.0 0.00 0.00 0.00 83 1007.6
20260902140522 53 86 1.0 2.0 0.00 0.00 0.00 84 1007.3
20260902135622 52 122 2.0 4.0 0.00 0.00 0.00 84 1006.9
20260902134722 52 75 1.0 4.0 0.00 0.00 0.00 84 1006.8
20260902133822 52 53 0.0 4.0 0.00 0.00 0.00 84 1006.7
20260902132922 52 65 1.0 8.0 0.00 0.00 0.00 84 1006.7
20260902132022 52 67 2.0 8.0 0.00 0.00 0.00 85 1006.6
20260902131122 51 40 2.0 4.0 0.00 0.00 0.00 84 1006.8
20260902130222 51 17 2.0 7.0 0.00 0.00 0.00 84 1006.9
20260902125322 51 1 4.0 7.0 0.00 0.00 0.00 83 1007.0
20260902123522 51 37 2.0 6.0 0.00 0.00 0.00 82 1007.0
20260902122622 52 353 2.0 6.0 0.00 0.00 0.00 82 1006.9
20260902121722 52 10 3.0 5.0 0.00 0.00 0.00 81 1007.1
20260902120822 52 359 2.0 6.0 0.00 0.00 0.00 81 1006.8
20260902115922 53 4 4.0 8.0 0.00 0.00 0.00 80 1007.0
20260902115022 53 55 4.0 8.0 0.00 0.00 0.00 81 1007.0
20260902114122 52 20 2.0 8.0 0.00 0.00 0.00 80 1007.0
20260902113222 53 350 3.0 6.0 0.00 0.00 0.00 79 1007.4
20260902112322 53 346 4.0 7.0 0.00 0.00 0.00 79 1007.3
20260902111422 53 346 5.0 7.0 0.00 0.00 0.00 79 1007.2
20260902105622 53 350 4.0 6.0 0.00 0.00 0.00 79 1007.1
20260902103822 53 346 5.0 8.0 0.00 0.00 0.00 78 1007.0
20260902102922 53 354 4.0 8.0 0.00 0.00 0.00 78 1007.1
20260902102022 53 12 5.0 7.0 0.00 0.00 0.00 77 1007.2
20260902101122 53 2 3.0 7.0 0.00 0.00 0.00 78 1007.1
20260902100222 53 334 4.0 8.0 0.00 0.00 0.00 77 1006.9
20260902095322 53 339 5.0 8.0 0.00 0.00 0.00 76 1007.1
20260902093522 53 348 4.0 8.0 0.00 0.00 0.00 74 1007.2
20260902092622 54 1 4.0 8.0 0.00 0.00 0.00 73 1007.1
20260902091721 55 11 3.0 8.0 0.00 0.00 0.00 73 1007.1
20260902090822 55 5 2.0 9.0 0.00 0.00 0.00 73 1007.1
20260902085922 55 352 5.0 8.0 0.00 0.00 0.00 72 1007.4
20260902085022 55 343 6.0 8.0 0.00 0.00 0.00 71 1007.3
20260902081422 58 351 6.0 8.0 0.00 0.00 0.00 67 1007.4
20260902080521 58 358 6.0 9.0 0.00 0.00 0.00 67 1007.6
20260902075621 59 22 2.0 9.0 0.00 0.00 0.00 66 1007.6
20260902073821 59 357 4.0 9.0 0.00 0.00 0.00 67 1007.5
20260902072921 58 344 5.0 8.0 0.00 0.00 0.00 68 1007.4